CELTEE 1

Last updated on Wed Mar 11 2026 00:03:59 GMT+0000 (Coordinated Universal Time)

1 41850U 16067C 26069.07775518 .00007504 00000+0 36636-3 0 9993 2 41850 98.0814 288.8772 0001020 134.7401 225.3914 15.18600961510835
UTC large
Height (km)
Speed (km/s)
/
Latitude / Longitude
Inclination (degrees)
Orbital Period (minutes)
Azimuth
Elevation
Range (km)
Doppler Factor

Next 0 passes for location: London (51.5072 / 0.1276)

Sorry there are no passes over London.